Terminal Aerodrome Forecast
Issued by NWS Pueblo, CO

Home | Current Version | Previous Version | Text Only | Print | Product List | Glossary On
Versions: 1 2 3 4 5 6 7 8 9 10 11 12 13 14 15 16 17 18 19 20 21 22 23
000
FTUS45 KPUB 202327
TAFALS
TAF
KALS 202327Z 2100/2124 11015KT P6SM FEW100
     FM210400 11008KT P6SM BKN060
     FM210800 VRB05KT P6SM BKN070
     FM211900 16012KT P6SM SCT050 BKN120=

USA.gov is the U.S. government's official web portal to all federal, state and local government web resources and services.